GW2642 Weather Reports


time (UTC)temp
C
wind
direction
speed
KPH
gust
KPH
rain 1hr
cm
rain 24hr
cm
rain mn
cm
humidity
%
barometer
mb
20260505184446 26 0 0.0 0.0 0.00 0.00 0.00 84 1009.9
20260505183424 26 90 0.0 0.0 0.00 0.00 0.00 84 1009.8
20260505182916 26 23 0.0 3.2 0.00 0.00 0.00 84 1009.9
20260505182405 26 338 0.0 6.4 0.00 0.00 0.00 84 1009.7
20260505181855 26 0 4.8 6.4 0.00 0.00 0.00 84 1009.7
20260505180325 26 68 0.0 6.4 0.00 0.00 0.00 85 1009.9
20260505175307 26 113 0.0 3.2 0.00 0.00 0.00 85 1009.6
20260505174758 26 0 0.0 3.2 0.00 0.00 0.00 85 1009.7
20260505174247 26 68 0.0 3.2 0.00 0.00 0.00 84 1009.8
20260505173222 26 90 0.0 11.3 0.00 0.00 0.00 84 1009.9
20260505172713 26 113 0.0 11.3 0.00 0.00 0.00 84 1009.9
20260505172202 27 68 0.0 9.7 0.00 0.00 0.00 83 1010.0
20260505171653 26 293 1.6 9.7 0.00 0.00 0.00 85 1010.0
20260505171142 26 45 1.6 9.7 0.00 0.00 0.00 84 1010.0
20260505170632 26 135 1.6 6.4 0.00 0.00 0.00 84 1010.2
20260505170122 26 315 3.2 11.3 0.00 0.00 0.00 85 1010.2
20260505165613 26 0 0.0 11.3 0.00 0.00 0.00 84 1010.5
20260505165103 26 45 3.2 11.3 0.00 0.00 0.00 84 1010.7
20260505164553 27 0 6.4 11.3 0.00 0.00 0.00 84 1010.6
20260505164043 27 0 4.8 11.3 0.00 0.00 0.00 82 1010.7
20260505163533 27 315 3.2 11.3 0.00 0.00 0.00 82 1010.6
20260505163023 26 113 3.2 9.7 0.00 0.00 0.00 84 1010.9
20260505162513 26 293 0.0 6.4 0.00 0.00 0.00 85 1011.0
20260505162004 26 68 0.0 3.2 0.00 0.00 0.00 84 1010.9
20260505161453 27 45 0.0 3.2 0.00 0.00 0.00 82 1011.1
20260505160940 26 0 0.0 6.4 0.00 0.00 0.00 84 1011.0
20260505160430 25 90 1.6 9.7 0.00 0.00 0.00 87 1011.3
20260505153330 24 113 0.0 0.0 0.00 0.00 0.00 89 1011.5
20260505152311 24 135 0.0 3.2 0.00 0.00 0.00 89 1011.5
20260505150741 23 0 0.0 3.2 0.00 0.00 0.00 89 1011.7
20260505150231 23 68 0.0 9.7 0.00 0.00 0.00 91 1011.9
20260505140543 22 90 0.0 6.4 0.00 0.00 0.00 94 1012.4
20260505124807 22 293 0.0 3.2 0.00 0.00 0.00 93 1012.2
20260505124257 21 338 0.0 3.2 0.00 0.00 0.00 94 1012.2
20260505123236 21 113 0.0 3.2 0.00 0.00 0.00 96 1012.1
20260505122726 20 113 0.0 3.2 0.00 0.00 0.00 98 1012.1
20260505121707 20 45 0.0 3.2 0.00 0.00 0.00 98 1012.1
20260505120648 20 113 0.0 6.4 0.00 0.00 0.00 99 1012.0
20260505120138 20 23 0.0 6.4 0.00 0.00 0.00 99 1011.9
20260505114100 19 23 0.0 0.0 0.00 0.00 0.00 99 1011.8
20260505113550 19 45 0.0 0.0 0.00 0.00 0.00 99 1011.7
20260505113045 19 90 0.0 0.0 0.00 0.00 0.00 99 1011.6
20260505112525 18 113 0.0 0.0 0.00 0.00 0.00 99 1011.6
20260505112015 18 45 0.0 6.4 0.00 0.00 0.00 99 1011.5
20260505111514 18 113 0.0 6.4 0.00 0.00 0.00 99 1011.4
20260505101818 18 135 0.0 0.0 0.00 0.00 0.00 99 1011.1
20260505101303 18 113 0.0 0.0 0.00 0.00 0.00 99 1011.3
20260505100753 18 135 0.0 3.2 0.00 0.00 0.00 99 1011.2
20260505100245 18 113 0.0 3.2 0.00 0.00 0.00 99 1011.2
20260505095220 18 113 0.0 0.0 0.00 0.00 0.00 99 1011.1
20260505094204 18 113 0.0 0.0 0.00 0.00 0.00 99 1010.6
20260505093152 18 113 0.0 0.0 0.00 0.00 0.00 99 1010.5
20260505092635 18 113 0.0 0.0 0.00 0.00 0.00 99 1010.4
20260505091619 18 23 0.0 0.0 0.00 0.00 0.00 99 1010.6
20260505091102 18 113 0.0 0.0 0.00 0.00 0.00 99 1010.4
20260505090552 18 113 0.0 0.0 0.00 0.00 0.00 99 1010.4
20260505090046 18 113 0.0 0.0 0.00 0.00 0.00 99 1010.7
20260505085022 18 135 0.0 0.0 0.00 0.00 0.00 99 1010.5
20260505084514 18 45 0.0 3.2 0.00 0.00 0.00 99 1010.6
20260505083452 18 90 0.0 6.4 0.00 0.00 0.00 99 1010.5
20260505082435 18 68 0.0 0.0 0.00 0.00 0.00 99 1010.9
20260505081926 18 68 0.0 0.0 0.00 0.00 0.00 99 1010.5
20260505080900 18 0 0.0 0.0 0.00 0.00 0.00 99 1011.0
20260505080355 18 68 0.0 0.0 0.00 0.00 0.00 99 1010.4
20260505075843 18 68 0.0 0.0 0.00 0.00 0.00 99 1010.4
20260505075338 18 68 0.0 0.0 0.00 0.00 0.00 99 1010.7
20260505074825 18 68 0.0 3.2 0.00 0.00 0.00 99 1010.8
20260505072742 18 45 0.0 0.0 0.00 0.00 0.00 99 1010.7
20260505072230 18 68 0.0 0.0 0.00 0.00 0.00 99 1010.7
20260505071720 18 68 0.0 0.0 0.00 0.00 0.00 99 1010.8
20260505071211 18 158 0.0 0.0 0.00 0.00 0.00 99 1010.7
20260505070658 18 113 0.0 0.0 0.00 0.00 0.00 99 1010.7
20260505070149 18 113 0.0 0.0 0.00 0.00 0.00 99 1010.8
20260505065130 18 90 0.0 0.0 0.00 0.00 0.00 99 1010.5
20260505064115 18 68 0.0 3.2 0.00 0.00 0.00 99 1010.8
20260505063601 18 135 0.0 0.0 0.00 0.00 0.00 99 1010.8
20260505063051 18 90 0.0 0.0 0.00 0.00 0.00 99 1011.0
20260505062540 18 113 0.0 0.0 0.00 0.00 0.00 99 1011.0
20260505061520 18 90 0.0 3.2 0.00 0.00 0.00 99 1011.0
20260505061016 18 180 0.0 3.2 0.00 0.00 0.00 99 1011.0
20260505060500 18 135 0.0 3.2 0.00 0.00 0.00 99 1011.0
20260505055440 18 113 0.0 0.0 0.00 0.00 0.00 99 1011.2
20260505054417 18 45 0.0 0.0 0.00 0.00 0.00 99 1011.0
20260505053909 18 135 0.0 0.0 0.00 0.00 0.00 99 1011.1
20260505053358 18 23 0.0 0.0 0.00 0.00 0.00 99 1011.2
20260505052847 19 135 0.0 0.0 0.00 0.00 0.00 98 1011.2
20260505052341 19 45 0.0 0.0 0.00 0.00 0.00 98 1011.2
20260505051320 19 158 0.0 0.0 0.00 0.00 0.00 98 1011.1
20260505050811 19 158 0.0 0.0 0.00 0.00 0.00 98 1011.2
20260505050301 19 45 0.0 0.0 0.00 0.00 0.00 98 1010.9
20260505041626 19 68 0.0 0.0 0.00 0.00 0.00 98 1011.2
20260505041121 19 180 0.0 0.0 0.00 0.00 0.00 98 1011.2
20260505040054 19 45 0.0 0.0 0.00 0.00 0.00 97 1011.2
20260505035547 19 45 0.0 3.2 0.00 0.00 0.00 97 1011.0
20260505035036 19 23 0.0 3.2 0.00 0.00 0.00 97 1011.0
20260505034528 19 158 0.0 0.0 0.00 0.00 0.00 97 1011.0
20260505034020 19 248 0.0 3.2 0.00 0.00 0.00 97 1011.1
20260505033506 19 90 0.0 6.4 0.00 0.00 0.00 97 1011.0
20260505032957 19 135 0.0 6.4 0.00 0.00 0.00 97 1011.2
20260505031427 18 68 0.0 0.0 0.00 0.00 0.00 96 1011.4
20260505030920 18 68 0.0 0.0 0.00 0.00 0.00 96 1011.3
20260505030407 18 338 0.0 0.0 0.00 0.00 0.00 96 1011.5
20260505025854 18 90 0.0 0.0 0.00 0.00 0.00 96 1011.3
20260505025345 18 68 0.0 0.0 0.00 0.00 0.00 96 1011.2
20260505024323 18 68 0.0 0.0 0.00 0.00 0.00 96 1011.1
20260505022754 18 113 0.0 6.4 0.00 0.00 0.00 95 1011.0
20260505022244 18 90 0.0 6.4 0.00 0.00 0.00 95 1010.9
20260505021735 18 113 0.0 3.2 0.00 0.00 0.00 95 1011.0
20260505021224 18 180 0.0 0.0 0.00 0.00 0.00 95 1010.7
20260505020714 19 113 0.0 6.4 0.00 0.00 0.00 94 1010.9
20260505020204 19 90 0.0 12.9 0.00 0.00 0.00 94 1010.7
20260505015655 19 23 0.0 12.9 0.00 0.00 0.00 94 1010.8
20260505015144 19 68 0.0 3.2 0.00 0.00 0.00 94 1010.6
20260505014634 19 248 0.0 6.4 0.00 0.00 0.00 94 1010.5
20260505014126 19 90 0.0 6.4 0.00 0.00 0.00 94 1010.6
20260505013613 19 113 0.0 6.4 0.00 0.00 0.00 94 1010.3
20260505013101 19 68 0.0 6.4 0.00 0.00 0.00 93 1010.5
20260505012042 19 113 0.0 6.4 0.00 0.00 0.00 93 1010.7
20260505011024 19 90 0.0 3.2 0.00 0.00 0.00 93 1010.3
20260505010511 19 135 0.0 3.2 0.00 0.00 0.00 93 1010.7
20260505005451 19 90 0.0 6.4 0.00 0.00 0.00 92 1010.5
20260505004943 19 45 0.0 6.4 0.00 0.00 0.00 91 1010.5
20260505004432 18 90 1.6 6.4 0.00 0.00 0.00 91 1010.4
20260505003922 18 113 0.0 3.2 0.00 0.00 0.00 90 1010.3
20260505003412 18 113 0.0 6.4 0.00 0.00 0.00 90 1010.4
20260505002904 18 68 0.0 6.4 0.00 0.00 0.00 89 1010.4
20260505002353 18 113 0.0 3.2 0.00 0.00 0.00 88 1010.2
20260505001842 18 113 0.0 3.2 0.00 0.00 0.00 87 1010.2
20260505000822 18 113 0.0 0.0 0.00 0.00 0.00 86 1010.3
20260505000313 18 113 0.0 0.0 0.00 0.00 0.00 86 1010.2
20260504235802 18 113 0.0 0.0 0.00 0.00 0.00 86 1010.2
20260504234739 18 113 0.0 0.0 0.00 0.00 0.00 85 1010.1
20260504233722 17 135 0.0 0.0 0.00 0.00 0.00 85 1010.1
20260504232702 18 113 0.0 0.0 0.00 0.00 0.00 84 1009.8
20260504232149 18 113 0.0 0.0 0.00 0.00 0.00 84 1009.6
20260504231640 18 113 0.0 0.0 0.00 0.00 0.00 84 1009.6
20260504230623 18 68 0.0 0.0 0.00 0.00 0.00 83 1009.6
20260504230110 18 135 0.0 0.0 0.00 0.00 0.00 84 1009.5
20260504225600 18 135 0.0 0.0 0.00 0.00 0.00 84 1009.5
20260504225053 18 135 0.0 0.0 0.00 0.00 0.00 84 1009.5
20260504224539 18 135 0.0 0.0 0.00 0.00 0.00 84 1009.5
20260504224030 18 113 0.0 0.0 0.00 0.00 0.00 84 1009.3
20260504223520 18 135 0.0 0.0 0.00 0.00 0.00 84 1009.4
20260504223008 18 135 0.0 0.0 0.00 0.00 0.00 84 1009.3
20260504222502 17 135 0.0 0.0 0.00 0.00 0.00 84 1009.3
20260504221437 17 135 0.0 0.0 0.00 0.00 0.00 83 1009.3
20260504220928 18 135 0.0 0.0 0.00 0.00 0.00 83 1009.3
20260504220417 17 135 0.0 0.0 0.00 0.00 0.00 82 1009.1
20260504214847 18 158 0.0 0.0 0.00 0.00 0.00 80 1009.1
20260504214339 18 158 0.0 0.0 0.00 0.00 0.00 78 1008.8
20260504213830 19 135 0.0 0.0 0.00 0.00 0.00 77 1008.9
20260504213318 19 158 0.0 0.0 0.00 0.00 0.00 76 1008.9
20260504212808 20 135 0.0 0.0 0.00 0.00 0.00 74 1008.8
20260504212258 20 113 0.0 0.0 0.00 0.00 0.00 74 1008.7
20260504211748 20 158 0.0 0.0 0.00 0.00 0.00 74 1008.8
20260504211243 20 135 0.0 0.0 0.00 0.00 0.00 72 1008.5
20260504210731 21 158 0.0 0.0 0.00 0.00 0.00 70 1008.8
20260504210220 21 90 0.0 0.0 0.00 0.00 0.00 69 1008.9
20260504205709 22 158 0.0 0.0 0.00 0.00 0.00 67 1008.6
20260504205158 22 338 0.0 0.0 0.00 0.00 0.00 65 1008.6
20260504203628 23 90 0.0 3.2 0.00 0.00 0.00 62 1008.6
20260504203121 23 135 0.0 3.2 0.00 0.00 0.00 61 1008.7
20260504202610 23 0 0.0 6.4 0.00 0.00 0.00 62 1008.7
20260504202055 23 113 0.0 6.4 0.00 0.00 0.00 61 1008.8
20260504201549 23 90 0.0 3.2 0.00 0.00 0.00 62 1008.8
20260504201036 23 23 0.0 3.2 0.00 0.00 0.00 61 1008.8
20260504200525 23 68 0.0 6.4 0.00 0.00 0.00 61 1009.2
20260504200016 23 113 0.0 6.4 0.00 0.00 0.00 61 1009.0
20260504195508 23 135 0.0 6.4 0.00 0.00 0.00 62 1008.9
20260504194959 25 113 0.0 6.4 0.00 0.00 0.00 60 1008.9
20260504194448 25 45 0.0 6.4 0.00 0.00 0.00 58 1009.2
20260504193937 25 0 0.0 3.2 0.00 0.00 0.00 56 1009.1
20260504192918 25 45 0.0 3.2 0.00 0.00 0.00 54 1009.1
20260504192406 25 338 0.0 3.2 0.00 0.00 0.00 56 1009.2
20260504191854 25 0 0.0 3.2 0.00 0.00 0.00 56 1009.2
20260504190323 26 338 0.0 0.0 0.00 0.00 0.00 55 1009.4
20260504185812 26 113 0.0 0.0 0.00 0.00 0.00 53 1009.5
20260504185305 26 68 0.0 3.2 0.00 0.00 0.00 52 1009.4
20260504184755 25 338 0.0 3.2 0.00 0.00 0.00 54 1009.5